Regional Weather Roundup
Issued by NWS

Home | Current Version | Previous Version | Graphics & Text | Print | Product List | Glossary On
Versions: 1 2 3 4 5 6 7 8 9 10 11 12 13 14 15 16 17 18 19 20 21 22 23 24 25 26 27 28 29 30 31 32 33 34 35 36 37 38 39 40 41 42 43 44 45 46 47 48 49 50
275
ASUS43 KMKX 230611
RWRWI

WISCONSIN REGIONAL WEATHER ROUNDUP
NATIONAL WEATHER SERVICE MILWAUKEE/SULLIVAN WI
100 AM CDT SAT JUL 23 2016

NOTE: "FAIR" INDICATES FEW OR NO CLOUDS BELOW 12,000 FEET WITH NO
SIGNIFICANT WEATHER AND/OR OBSTRUCTIONS TO VISIBILITY.

WIZ001-002-006>008-014>016-023>028-230700-
NORTHWEST WISCONSIN

CITY           SKY/WX    TMP DP  RH WIND       PRES   REMARKS
SUPERIOR ARPT  PTCLDY    67  63  86 CALM      29.99S
6HR MIN TEMP:  64; 6HR MAX TEMP:  85;

ASHLAND        CLOUDY    68  61  78 CALM      30.00R
6HR MIN TEMP:  67; 6HR MAX TEMP:  88;

HAYWARD        CLOUDY    68  65  90 CALM      30.02R
6HR MIN TEMP:  67; 6HR MAX TEMP:  86;

SIREN          CLOUDY    72  70  94 CALM      30.01R
CUMBERLAND     CLOUDY    68  64  88 CALM      30.02R
RICE LAKE      CLOUDY    67  66  95 CALM      30.02S FOG
6HR MIN TEMP:  67; 6HR MAX TEMP:  85;

CHETEK         CLOUDY    69  69  99 CALM      30.01S
6HR MIN TEMP:  69; 6HR MAX TEMP:  88;

LADYSMITH      PTCLDY    68  67  94 CALM      30.03S
6HR MIN TEMP:  68; 6HR MAX TEMP:  86;

EAU CLAIRE     CLOUDY    70  69  97 N3        29.98S
6HR MIN TEMP:  69; 6HR MAX TEMP:  91;

MENOMONIE      PTCLDY    71  65  83 CALM      29.99S
6HR MIN TEMP:  71; 6HR MAX TEMP:  93;

NEW RICHMOND   CLEAR     68  67  97 CALM      29.99S
6HR MIN TEMP:  68; 6HR MAX TEMP:  90;

OSCEOLA        PTCLDY    69  69 100 CALM      30.02R
6HR MIN TEMP:  68; 6HR MAX TEMP:  88;

$$

WIZ003>005-009-010-017-018-230700-
NORTH CENTRAL WISCONSIN

CITY           SKY/WX    TMP DP  RH WIND       PRES   REMARKS
MANITOWISH WTR CLOUDY    62  62 100 CALM      30.03S
6HR MIN TEMP:  62; 6HR MAX TEMP:  83;

ARBOR VITAE    CLEAR     65  64  94 CALM      30.03S
6HR MIN TEMP:  65; 6HR MAX TEMP:  85;

WOODRUFF       CLEAR     65  64  94 CALM      30.03S
6HR MIN TEMP:  65; 6HR MAX TEMP:  85;

RHINELANDER    CLEAR     64  61  90 CALM      30.03S
6HR MIN TEMP:  64; 6HR MAX TEMP:  86;

EAGLE RIVER    FOG       63  63 100 CALM      30.03S VSB 1
6HR MIN TEMP:  61; 6HR MAX TEMP:  84;

LAND O LAKES   CLEAR     59  59  99 CALM      30.04S FOG
6HR MIN TEMP:  59; 6HR MAX TEMP:  85;

PHILLIPS       CLOUDY    67  67 100 CALM      30.03R FOG
6HR MIN TEMP:  66; 6HR MAX TEMP:  85;

TOMAHAWK       CLEAR     62  61  96 CALM      30.04S
6HR MIN TEMP:  62; 6HR MAX TEMP:  85;

MEDFORD        FOG       64  64 100 CALM      30.02F VSB 1/4
6HR MIN TEMP:  62; 6HR MAX TEMP:  84;

MERRILL        FOG       66  66 100 CALM      30.02S VSB 3/4
6HR MIN TEMP:  66; 6HR MAX TEMP:  87;

$$

WIZ029-030-035-036-043>047-230700-
CENTRAL WISCONSIN

CITY           SKY/WX    TMP DP  RH WIND       PRES   REMARKS
WAUSAU         CLOUDY    70  67  90 CALM      30.00S
6HR MIN TEMP:  70; 6HR MAX TEMP:  88;

MOSINEE        CLOUDY    70  68  94 CALM      30.02F
MARSHFIELD     PTCLDY    70  66  87 NW3       30.01S
6HR MIN TEMP:  70; 6HR MAX TEMP:  87;

STEVENS POINT  PTCLDY    66  65  96 CALM      30.01S
6HR MIN TEMP:  66; 6HR MAX TEMP:  86;

WAUPACA        CLEAR     72  70  95 CALM      29.99S
6HR MIN TEMP:  72; 6HR MAX TEMP:  92;

WAUTOMA        CLEAR     69  68  96 CALM      30.00S
6HR MIN TEMP:  69; 6HR MAX TEMP:  90;

WISC RAPIDS    CLEAR     69  65  86 CALM      30.01S
6HR MIN TEMP:  69; 6HR MAX TEMP:  90;

CAMP DOUGLAS   FOG       66  66 100 CALM      29.99F VSB 1/4
6HR MIN TEMP:  65; 6HR MAX TEMP:  91;

$$

WIZ011>013-019>022-031-037>040-048>050-230700-
NORTHEAST WISCONSIN

CITY           SKY/WX    TMP DP  RH WIND       PRES   REMARKS
ANTIGO         CLEAR     64  64  97 CALM      30.03S
6HR MIN TEMP:  64; 6HR MAX TEMP:  85;

SHAWANO        PTCLDY    70  67  91 CALM      29.98S
6HR MIN TEMP:  70; 6HR MAX TEMP:  90;

OCONTO         CLEAR    N/A N/A N/A CALM      29.96S
STURGEON BAY   CLEAR     71  68  90 S3        29.97S
6HR MIN TEMP:  70; 6HR MAX TEMP:  87;

GREEN BAY      CLEAR     73  70  90 W3        29.97S
6HR MIN TEMP:  71; 6HR MAX TEMP:  87;

MANITOWOC      CLEAR     75  71  87 W5        29.97S
6HR MIN TEMP:  72; 6HR MAX TEMP:  80;

APPLETON       CLEAR     72  63  73 W9        29.98R
CLINTONVILLE   CLEAR     70  66  88 CALM      29.98S
OSHKOSH        CLEAR     76  69  79 W6        29.98S
6HR MIN TEMP:  72; 6HR MAX TEMP:  89;

$$

WIZ032>034-041-042-053>061-230700-
SOUTHWEST WISCONSIN

CITY           SKY/WX    TMP DP  RH WIND       PRES   REMARKS
LA CROSSE      PTCLDY    79  75  87 CALM      29.97F HX  83
6HR MIN TEMP:  79; 6HR MAX TEMP:  92;

SPARTA         PTCLDY    68  68 100 CALM      30.00F
6HR MIN TEMP:  67; 6HR MAX TEMP:  90;

VIROQUA        PTCLDY    76  76 100 CALM      30.02F
6HR MIN TEMP:  76; 6HR MAX TEMP:  86;

BOSCOBEL       FOG       77  76  96 CALM      29.99S VSB 1/4
6HR MIN TEMP:  77; 6HR MAX TEMP:  88;

PRAIRIE DU CHI CLOUDY    76  74  93 CALM      29.98F
6HR MIN TEMP:  76; 6HR MAX TEMP:  85;

PLATTEVILLE    PTCLDY    76  76 100 S5        30.01F
6HR MIN TEMP:  76; 6HR MAX TEMP:  83;

$$

WIZ056-057-062-063-064-067-068-230700-
SOUTH CENTRAL WISCONSIN

CITY           SKY/WX    TMP DP  RH WIND       PRES   REMARKS
REEDSBURG      CLEAR     76  76 100 CALM      30.00S
BARABOO/DELLS  FOG       75  73  93 CALM      30.00S VSB 1/4
6HR MIN TEMP:  75; 6HR MAX TEMP:  87;

LONE ROCK      FOG       75  74  96 CALM      30.00S VSB 3/4
6HR MIN TEMP:  74; 6HR MAX TEMP:  87;

MINERAL POINT  CLEAR     77  77 100 CALM      30.02S FOG
MADISON        PTCLDY    77  76  96 CALM      30.00S
6HR MIN TEMP:  77; 6HR MAX TEMP:  89;

MIDDLETON      CLEAR     76  76 100 CALM      30.01S
6HR MIN TEMP:  76; 6HR MAX TEMP:  89;

WATERTOWN      CLEAR     75  75 100 CALM      29.99S
6HR MIN TEMP:  74; 6HR MAX TEMP:  87;

MONROE         CLEAR     77  73  88 SW5       30.01F
JANESVILLE     CLEAR     79  77  94 CALM      30.00S HX  83
$$

WIZ051-052-058>065-066-070>072-230700-
SOUTHEAST WISCONSIN

CITY           SKY/WX    TMP DP  RH WIND       PRES   REMARKS
MILWAUKEE      PTCLDY    78  71  79 CALM      29.98F HX  80
6HR MIN TEMP:  77; 6HR MAX TEMP:  84;

WAUKESHA       PTCLDY    73  72  94 CALM      30.01S
MILWAUKEE/TIMM CLEAR     73  68  83 CALM      30.00S
RACINE         CLEAR     75  71  87 CALM      30.01S
6HR MIN TEMP:  74; 6HR MAX TEMP:  86;

BURLINGTON     PTCLDY    74  74  98 CALM      30.00S FOG
6HR MIN TEMP:  73; 6HR MAX TEMP:  87;

KENOSHA        CLEAR     75  73  93 CALM      30.00S
6HR MIN TEMP:  74; 6HR MAX TEMP:  89;

FOND DU LAC    CLEAR     73  71  93 W3        29.99S
6HR MIN TEMP:  72; 6HR MAX TEMP:  88;

SHEBOYGAN      CLEAR     72  70  93 SW3       29.98S FOG
6HR MIN TEMP:  70; 6HR MAX TEMP:  87; 6HR PCP: TRACE;

WEST BEND      CLEAR     70  70 100 CALM      30.00S
JUNEAU         CLEAR     74  73  99 CALM      30.02R FOG
6HR MIN TEMP:  73; 6HR MAX TEMP:  87;

$$

LSZ147-162-230700-
LAKE SUPERIOR

STATION/POSITION TIME  TEMP    WIND        PRES    WAVE
                       AIR SEA DIR/SP/G            HT/PER
                 (UTC) (F)     (DEG/KT/KT) (MB)    (FT/S)
W MID LAKE BUOY  0550   64 58  290/  8/  8 1014.1R   1
DEVILS ISLAND    0600   71     310/  8/  8 1014.9R
SAXON HARBOR     0540   68     200/  4/  5 1014.9R
$$

LMZ867-665-643>646-230700-
LAKE MICHIGAN

STATION/POSITION TIME  TEMP    WIND        PRES    WAVE
                       AIR SEA DIR/SP/G            HT/PER
                 (UTC) (F)     (DEG/KT/KT) (MB)    (FT/S)
CHAMBERS ISLAND  0500   68     200/  4/  6 1014.2R
S GREEN BAY BUOY 0500   76 75  290/  4/  6   N/A
N MID LAKC1F1C2F2C3F3C4F4C5F5C6F6C7F7C8M1C9M2Ca!



USA.gov is the U.S. government's official web portal to all federal, state and local government web resources and services.